Cleveland, OH

10:17 AM EST on February 12, 2016 (GMT -0500)
Cleveland-Hopkins International

Weather History for KCLE - October, 2013

Change the Weather History Date:

Thursday, October 10, 2013

  Actual Average Record
Temperature  
Mean Temperature 55 °F 56 °F  
Max Temperature 67 °F 64 °F 86 °F (1949)
Min Temperature 43 °F 47 °F 30 °F (1895)
Degree Days  
Heating Degree Days 10 10  
Month to date heating degree days 35 85  
Since 1 July heating degree days 129 188  
Cooling Degree Days 0 1  
Month to date cooling degree days 34 10  
Year to date cooling degree days 889 814  
Growing Degree Days 4 (Base 50)    
Moisture  
Dew Point 43 °F    
Average Humidity 62    
Maximum Humidity 83    
Minimum Humidity 40    
Precipitation  
Precipitation 0.00 in 0.11 in - ()
Month to date precipitation 2.48 1.07  
Year to date precipitation 32.65 30.42  
Snow  
Snow 0.00 in 0.00 in - ()
Month to date snowfall 0.0 0.0  
Since 1 July snowfall 0.0 0.0  
Since 1 September snowfall 0.0 0.0  
Snow Depth 0.00 in    
Sea Level Pressure  
Sea Level Pressure 30.21 in    
Wind  
Wind Speed 4 mph (ENE)    
Max Wind Speed 10 mph    
Max Gust Speed 12 mph    
Visibility 10 miles    
Events      
T = Trace of Precipitation, MM = Missing Value Source: NWS Daily Summary

Daily Weather History Graph

Daily Weather History Graph

Search for Another Location

Airport or City:

Trip Planner

Search our weather history database for the weather conditions in past years. The results will help you decide how hot, cold, wet, or windy it might be!

Date:

Astronomy

Oct. 10, 2013 Rise Set
Actual Time 7:34 AM EDT 6:53 PM EDT
Civil Twilight 7:06 AM EDT 7:21 PM EDT
Nautical Twilight 6:34 AM EDT 7:53 PM EDT
Astronomical Twilight 6:02 AM EDT 8:25 PM EDT
Moon 1:27 PM EDT (10/10) 11:28 PM EDT (10/10)
Length of Visible Light 12h 15m
Length of Day
11h 19m
Waxing Crescent, 35% of the Moon is Illuminated
Oct 10
Waxing Crescent
Oct 11
First Quarter
Oct 18
Full
Oct 26
Last Quarter
Nov 3
New

Hourly Weather History & Observations

Time (EDT) Temp. Windchill Dew Point Humidity Pressure Visibility Wind Dir Wind Speed Gust Speed Precip Events Conditions
12:51 AM 51.1 °F - 42.1 °F 71% 30.23 in 10.0 mi SE 4.6 mph - N/A   Scattered Clouds
1:51 AM 53.1 °F - 39.9 °F 61% 30.23 in 10.0 mi Calm Calm - N/A   Mostly Cloudy
2:51 AM 48.9 °F - 39.9 °F 71% 30.23 in 10.0 mi South 4.6 mph - N/A   Scattered Clouds
3:51 AM 48.0 °F - 41.0 °F 77% 30.23 in 10.0 mi Calm Calm - N/A   Scattered Clouds
4:51 AM 46.9 °F - 41.0 °F 80% 30.23 in 10.0 mi Calm Calm - N/A   Partly Cloudy
5:51 AM 44.1 °F 41.5 °F 39.9 °F 85% 30.24 in 10.0 mi SSE 4.6 mph - N/A   Partly Cloudy
6:51 AM 44.1 °F - 39.0 °F 82% 30.25 in 10.0 mi Calm Calm - N/A   Scattered Clouds
7:51 AM 46.0 °F - 39.9 °F 79% 30.25 in 10.0 mi Calm Calm - N/A   Partly Cloudy
8:51 AM 50.0 °F - 43.0 °F 77% 30.26 in 10.0 mi SE 3.5 mph - N/A   Partly Cloudy
9:51 AM 55.0 °F - 42.1 °F 62% 30.26 in 10.0 mi East 3.5 mph - N/A   Partly Cloudy
10:51 AM 62.1 °F - 44.1 °F 52% 30.25 in 10.0 mi Calm Calm - N/A   Scattered Clouds
11:51 AM 64.0 °F - 41.0 °F 43% 30.23 in 10.0 mi Calm Calm - N/A   Scattered Clouds
12:51 PM 64.9 °F - 39.9 °F 40% 30.23 in 10.0 mi NNE 5.8 mph - N/A   Scattered Clouds
1:51 PM 64.9 °F - 42.1 °F 43% 30.20 in 10.0 mi NE 5.8 mph - N/A   Scattered Clouds
2:51 PM 63.0 °F - 44.1 °F 50% 30.19 in 10.0 mi North 6.9 mph - N/A   Mostly Cloudy
3:51 PM 62.1 °F - 44.1 °F 52% 30.19 in 10.0 mi North 9.2 mph - N/A   Mostly Cloudy
4:51 PM 63.0 °F - 48.0 °F 58% 30.18 in 10.0 mi NNE 6.9 mph - N/A   Mostly Cloudy
5:51 PM 64.0 °F - 46.9 °F 54% 30.18 in 10.0 mi NNE 8.1 mph - N/A   Mostly Cloudy
6:51 PM 61.0 °F - 50.0 °F 67% 30.17 in 10.0 mi NNE 8.1 mph - N/A   Scattered Clouds
7:51 PM 61.0 °F - 48.9 °F 64% 30.16 in 10.0 mi ENE 6.9 mph - N/A   Scattered Clouds
8:51 PM 57.0 °F - 48.0 °F 72% 30.15 in 10.0 mi NNE 3.5 mph - N/A   Scattered Clouds
9:51 PM 55.0 °F - 48.0 °F 77% 30.15 in 10.0 mi Calm Calm - N/A   Scattered Clouds
10:51 PM 54.0 °F - 48.0 °F 80% 30.15 in 10.0 mi Calm Calm - N/A   Partly Cloudy
11:51 PM 53.1 °F - 46.9 °F 80% 30.14 in 10.0 mi SSE 3.5 mph - N/A   Partly Cloudy